Weather in Hradyzk

Ukraine / Poltava Region     49˚13′47″N   33˚07′52″E
temp.,
°C
wind,
m/s
gust,
m/s
humid.,
%
clouds,
%
prec.,
mm/h
press.,
hPa
HPBL,
m
28 november, sat
sat2823:00+5˚w3574100 0.0 1020266
02:00+5˚wnw2279100 0.0 101992
05:00+4˚ssw1283100 0.0 101949
08:00+4˚sse3379100 0.0 1019166
11:00+5˚s3468100 0.0 1019324
14:00+6˚sw2363100 0.0 1018374
17:00+4˚ssw0070100 0.0 101728
20:00+4˚n1175100 0.0 101828
29 november, sun
sun2923:00+4˚nnw2285100 0.0 101856
02:00+3˚n1292100 0.0 101944
05:00+3˚n2394100 0.0 101881
08:00+3˚nne1292100 0.0 102077
11:00+5˚sse1184100 0.1 1021286
14:00+4˚wnw2293100 1.1 1021160
17:00+4˚n1195100 0.3 102172
20:00+3˚ne2294100 0.3 102247
30 november, mon
mon3023:00+3˚nne2393100 0.0 102179
02:00+4˚n3491100 0.1 1022143
05:00+4˚n3691100 0.6 1021245
08:00+4˚n3693100 0.8 1023226
11:00+4˚n2395100 1.3 1023172
14:00+5˚nne2395100 3.4 1023206
17:00+5˚nne1196100 1.8 102474
20:00+5˚e1293100 3.3 1024126
1 december, tue
tue123:00+5˚e1291100 0.4 1025130
02:00+4˚e1188100 0.5 102589
05:00+4˚ne2287100 0.1 1025154
08:00+4˚nne2284100 0.1 1026142
11:00+5˚e4576100 0.0 1026572
14:00+5˚ene4571100 0.0 1026652
17:00+3˚e4674100 0.0 1026627
20:00+3˚e4780100 0.1 1026638
2 december, wed
wed223:00+2˚e5786100 0.0 1026522
02:00+1˚e5794100 0.1 1026459
05:00+1˚e5795100 0.1 1026388
08:00+1˚e4693100 0.1 1027303
11:00+1˚e4594100 0.2 1027299
14:00+2˚e5793100 0.4 1026383
17:00+2˚e5787100 0.1 1027460
20:00+3˚ese5880100 0.1 1028527